TimeMST,TemperatureF,Dew PointF,Humidity,Sea Level PressureIn,VisibilityMPH,Wind Direction,Wind SpeedMPH,Gust SpeedMPH,PrecipitationIn,Events,Conditions,WindDirDegrees,DateUTC
12:53 AM,10.9,-2.0,56,30.16,10.0,West,9.2,-,N/A,,Clear,270,2012-12-22 07:53:00
1:53 AM,10.4,-2.2,57,30.02,10.0,NW,6.9,-,N/A,,Clear,310,2012-12-22 08:53:00
2:53 AM,9.0,-2.9,59,30.18,10.0,North,4.6,-,N/A,,Clear,350,2012-12-22 09:53:00
3:53 AM,9.0,-2.0,61,30.19,10.0,Calm,Calm,-,N/A,,Clear,0,2012-12-22 10:53:00
4:53 AM,12.0,-2.0,53,30.22,10.0,Calm,Calm,-,N/A,,Clear,0,2012-12-22 11:53:00
5:53 AM,7.0,-2.9,64,30.27,10.0,North,3.5,-,N/A,,Clear,360,2012-12-22 12:53:00
6:53 AM,7.0,-2.0,67,30.26,10.0,NW,4.6,-,N/A,,Clear,320,2012-12-22 13:53:00
7:53 AM,6.1,-2.0,69,30.30,10.0,NNW,4.6,-,N/A,,Clear,330,2012-12-22 14:53:00
8:53 AM,15.1,1.9,56,30.25,10.0,Calm,Calm,-,N/A,,Clear,0,2012-12-22 15:53:00
9:53 AM,21.0,1.9,44,30.22,10.0,Calm,Calm,-,N/A,,Clear,0,2012-12-22 16:53:00
10:53 AM,23.0,3.9,44,30.19,10.0,NE,3.5,-,N/A,,Clear,40,2012-12-22 17:53:00
11:53 AM,25.0,3.0,39,30.15,10.0,ENE,4.6,-,N/A,,Clear,60,2012-12-22 18:53:00
12:53 PM,28.9,3.0,33,30.10,10.0,Calm,Calm,-,N/A,,Clear,0,2012-12-22 19:53:00
1:53 PM,32.0,3.0,29,30.06,10.0,Calm,Calm,-,N/A,,Clear,0,2012-12-22 20:53:00
2:53 PM,30.9,3.0,31,30.04,10.0,ENE,4.6,-,N/A,,Clear,70,2012-12-22 21:53:00
3:53 PM,28.9,1.9,32,30.02,10.0,ENE,3.5,-,N/A,,Clear,70,2012-12-22 22:53:00
4:53 PM,21.9,-0.0,38,30.03,10.0,WNW,3.5,-,N/A,,Clear,300,2012-12-22 23:53:00
5:53 PM,27.0,3.0,36,30.02,10.0,South,8.1,-,N/A,,Clear,180,2012-12-23 00:53:00
6:53 PM,23.0,1.9,40,30.02,10.0,South,4.6,-,N/A,,Clear,190,2012-12-23 01:53:00
7:53 PM,27.0,5.0,39,29.99,10.0,South,10.4,-,N/A,,Clear,180,2012-12-23 02:53:00
8:53 PM,18.0,1.0,48,29.99,10.0,NW,3.5,-,N/A,,Clear,320,2012-12-23 03:53:00
9:53 PM,19.9,1.0,44,29.96,10.0,West,6.9,-,N/A,,Clear,260,2012-12-23 04:53:00
10:53 PM,19.0,1.0,46,29.97,10.0,WSW,8.1,-,N/A,,Clear,250,2012-12-23 05:53:00
11:53 PM,23.0,3.0,42,29.93,10.0,SSW,10.4,-,N/A,,Clear,200,2012-12-23 06:53:00